Location: Pedimozza
(42.0500°N, 9.3500°E)
Time: 20:17:20
(UTC+00:00)

Iridium 2 - Pass Details

Date: 19 August 2019
Orbit: 505 x 517 km, 85.5° (Epoch: 23 October)

Event Time Altitude Azimuth Distance (km) Brightness Sun altitude
Exits shadow 20:17:30 41° 62° (ENE) 749 4.3 -20.2°
Drops below altitude 10° 20:20:31 10° 17° (NNE) 1,727 6.6 -20.6°
Sets 20:22:41 0° 11° (N) 2,618 7.7 -21.0°
